Location: Bazugues
(43.4465°N, 0.3432°E)
Time: 06:21:07
(UTC+00:00)

USA 267 - Pass Details

Date: 12 January 2026
Orbit: 1101 x 1107 km, 123.0° (Epoch: 10 January)

Event Time Altitude Azimuth Distance (km) Brightness Sun altitude
Exits shadow 18:46:12 37° 92° (E) 1,648 3.6 -21.6°
Maximum altitude 18:48:43 59° 32° (NNE) 1,264 3.3 -22.0°
Drops below altitude 10° 18:55:06 10° 315° (NW) 2,964 6.0 -23.1°
Sets 18:57:37 0° 312° (NW) 3,924 6.7 -23.6°
